| time (UTC) | temp F | wind direction | speed knots | gust knots | rain 1hr in | rain 24hr in | rain mn in | humidity % | barometer mb |
| 20260507224529 | 78 | 156 | 0.0 | 0.0 | 0.00 | 0.04 | 0.04 | 84 | 1012.3 |
| 20260507221528 | 78 | 157 | 0.0 | 0.0 | 0.00 | 0.04 | 0.04 | 82 | 1012.3 |
| 20260507220028 | 79 | 158 | 0.9 | 0.0 | 0.00 | 0.04 | 0.04 | 82 | 1012.1 |
| 20260507214528 | 79 | 159 | 0.0 | 0.0 | 0.00 | 0.04 | 0.04 | 82 | 1012.1 |
| 20260507213028 | 79 | 53 | 0.9 | 0.0 | 0.00 | 0.04 | 0.04 | 82 | 1012.0 |
| 20260507210027 | 79 | 120 | 0.0 | 0.0 | 0.00 | 0.04 | 0.04 | 83 | 1011.8 |
| 20260507204527 | 79 | 119 | 0.9 | 0.0 | 0.00 | 0.04 | 0.04 | 82 | 1011.9 |
| 20260507201534 | 80 | 80 | 0.9 | 0.0 | 0.00 | 0.04 | 0.04 | 82 | 1012.0 |
| 20260507194527 | 80 | 159 | 0.0 | 0.0 | 0.00 | 0.04 | 0.04 | 81 | 1012.1 |
| 20260507193026 | 80 | 168 | 0.0 | 0.0 | 0.00 | 0.04 | 0.04 | 81 | 1012.3 |
| 20260507190025 | 80 | 142 | 0.9 | 0.0 | 0.00 | 0.04 | 0.04 | 82 | 1012.3 |
| 20260507184525 | 80 | 269 | 1.7 | 0.0 | 0.00 | 0.04 | 0.04 | 82 | 1012.5 |
| 20260507183025 | 79 | 80 | 0.0 | 0.0 | 0.00 | 0.04 | 0.04 | 82 | 1012.4 |
| 20260507181525 | 79 | 160 | 1.7 | 0.0 | 0.00 | 0.04 | 0.04 | 83 | 1012.6 |
| 20260507180025 | 77 | 132 | 0.9 | 0.0 | 0.00 | 0.04 | 0.04 | 84 | 1012.7 |
| 20260507174525 | 76 | 248 | 0.9 | 0.0 | 0.00 | 0.04 | 0.04 | 85 | 1012.9 |
| 20260507173024 | 75 | 168 | 0.9 | 0.0 | 0.00 | 0.04 | 0.04 | 88 | 1012.9 |
| 20260507171524 | 73 | 346 | 1.7 | 0.0 | 0.00 | 0.04 | 0.04 | 89 | 1013.0 |
| 20260507170024 | 72 | 113 | 0.0 | 0.0 | 0.00 | 0.04 | 0.04 | 91 | 1013.3 |
| 20260507164524 | 71 | 181 | 0.0 | 0.0 | 0.00 | 0.04 | 0.04 | 91 | 1013.5 |
| 20260507163023 | 70 | 146 | 0.0 | 0.0 | 0.00 | 0.04 | 0.04 | 92 | 1013.7 |
| 20260507161524 | 70 | 82 | 0.0 | 0.0 | 0.00 | 0.04 | 0.04 | 92 | 1013.8 |
| 20260507154523 | 69 | 228 | 0.0 | 0.0 | 0.00 | 0.04 | 0.04 | 93 | 1013.4 |
| 20260507153023 | 68 | 163 | 0.0 | 0.0 | 0.00 | 0.04 | 0.04 | 93 | 1013.4 |
| 20260507151523 | 68 | 165 | 0.0 | 0.0 | 0.00 | 0.04 | 0.04 | 93 | 1013.4 |
| 20260507144523 | 68 | 71 | 0.0 | 0.0 | 0.00 | 0.04 | 0.04 | 92 | 1013.5 |
| 20260507143022 | 69 | 169 | 0.0 | 0.0 | 0.00 | 0.04 | 0.04 | 93 | 1013.4 |
| 20260507141522 | 69 | 169 | 0.0 | 0.0 | 0.00 | 0.04 | 0.04 | 92 | 1013.5 |
| 20260507140022 | 70 | 206 | 0.0 | 0.0 | 0.00 | 0.04 | 0.04 | 93 | 1013.2 |
| 20260507134521 | 70 | 206 | 0.0 | 0.0 | 0.01 | 0.04 | 0.04 | 92 | 1013.0 |
| 20260507133021 | 70 | 206 | 0.0 | 0.0 | 0.01 | 0.04 | 0.04 | 92 | 1012.9 |
| 20260507131521 | 71 | 205 | 0.0 | 0.0 | 0.02 | 0.04 | 0.04 | 92 | 1012.7 |
| 20260507130021 | 71 | 207 | 0.0 | 0.0 | 0.02 | 0.04 | 0.04 | 92 | 1012.7 |
| 20260507123020 | 72 | 254 | 0.0 | 0.0 | 0.02 | 0.03 | 0.03 | 92 | 1012.2 |
| 20260507121520 | 73 | 254 | 0.0 | 0.0 | 0.01 | 0.02 | 0.02 | 92 | 1011.9 |
| 20260507120020 | 74 | 232 | 0.0 | 0.0 | 0.01 | 0.02 | 0.02 | 92 | 1011.6 |
| 20260507114520 | 74 | 232 | 0.0 | 0.0 | 0.01 | 0.02 | 0.02 | 91 | 1011.0 |
| 20260507113020 | 75 | 232 | 0.0 | 0.0 | 0.01 | 0.01 | 0.01 | 91 | 1010.9 |
| 20260507104519 | 78 | 243 | 0.0 | 0.0 | 0.01 | 0.01 | 0.01 | 92 | 1010.4 |
| 20260507103019 | 78 | 243 | 0.0 | 0.0 | 0.00 | 0.00 | 0.00 | 92 | 1010.0 |
| 20260507100018 | 78 | 181 | 0.0 | 0.0 | 0.00 | 0.00 | 0.00 | 92 | 1009.8 |
| 20260507094518 | 78 | 123 | 0.0 | 0.0 | 0.00 | 0.00 | 0.00 | 92 | 1009.7 |
| 20260507093019 | 78 | 332 | 1.7 | 0.0 | 0.00 | 0.00 | 0.00 | 92 | 1009.6 |
| 20260507090018 | 78 | 212 | 0.0 | 0.0 | 0.00 | 0.00 | 0.00 | 92 | 1009.6 |
| 20260507084517 | 78 | 287 | 0.0 | 0.0 | 0.00 | 0.00 | 0.00 | 92 | 1009.6 |
| 20260507083018 | 78 | 182 | 0.9 | 0.0 | 0.00 | 0.00 | 0.00 | 92 | 1009.6 |
| 20260507081517 | 78 | 191 | 0.0 | 0.0 | 0.00 | 0.00 | 0.00 | 92 | 1009.5 |
| 20260507080017 | 78 | 285 | 1.7 | 0.0 | 0.00 | 0.00 | 0.00 | 92 | 1009.5 |
| 20260507074517 | 78 | 286 | 0.0 | 0.0 | 0.00 | 0.00 | 0.00 | 92 | 1009.6 |
| 20260507073017 | 78 | 101 | 0.0 | 0.0 | 0.00 | 0.00 | 0.00 | 92 | 1009.8 |
| 20260507071516 | 78 | 169 | 0.9 | 0.0 | 0.00 | 0.00 | 0.00 | 91 | 1009.9 |
| 20260507070017 | 78 | 284 | 1.7 | 0.0 | 0.00 | 0.00 | 0.00 | 91 | 1010.2 |
| 20260507064516 | 78 | 151 | 0.0 | 0.0 | 0.00 | 0.00 | 0.00 | 91 | 1010.2 |
| 20260507063016 | 79 | 136 | 0.0 | 0.0 | 0.00 | 0.00 | 0.00 | 91 | 1010.3 |
| 20260507061515 | 79 | 309 | 0.0 | 0.0 | 0.00 | 0.00 | 0.00 | 91 | 1010.4 |
| 20260507060015 | 79 | 311 | 0.0 | 0.0 | 0.00 | 0.00 | 0.00 | 91 | 1010.4 |
| 20260507054515 | 79 | 185 | 0.0 | 0.0 | 0.00 | 0.00 | 0.00 | 91 | 1010.3 |
| 20260507053015 | 79 | 289 | 0.0 | 0.0 | 0.00 | 0.00 | 0.00 | 91 | 1010.3 |
| 20260507051516 | 79 | 288 | 0.9 | 0.0 | 0.00 | 0.00 | 0.00 | 91 | 1010.4 |
| 20260507050044 | 79 | 125 | 0.0 | 0.0 | 0.00 | 0.00 | 0.00 | 91 | 1010.3 |
| 20260507044544 | 79 | 245 | 1.7 | 0.0 | 0.00 | 0.00 | 0.00 | 91 | 1010.2 |
| 20260507043014 | 79 | 228 | 0.9 | 0.0 | 0.00 | 0.00 | 0.00 | 91 | 1010.0 |
| 20260507041514 | 79 | 295 | 2.6 | 0.0 | 0.00 | 0.00 | 0.00 | 91 | 1009.6 |
| 20260507040044 | 79 | 181 | 0.0 | 0.0 | 0.00 | 0.00 | 0.00 | 91 | 1009.5 |
| 20260507033043 | 79 | 112 | 0.9 | 0.0 | 0.00 | 0.00 | 0.00 | 90 | 1009.6 |
| 20260507031513 | 79 | 134 | 0.0 | 0.0 | 0.00 | 0.00 | 0.00 | 90 | 1009.8 |
| 20260507030043 | 79 | 139 | 0.9 | 0.0 | 0.00 | 0.00 | 0.00 | 90 | 1009.7 |
| 20260507024543 | 80 | 116 | 1.7 | 0.0 | 0.00 | 0.00 | 0.00 | 90 | 1010.0 |
| 20260507023043 | 80 | 296 | 0.9 | 0.0 | 0.00 | 0.00 | 0.00 | 90 | 1010.3 |
| 20260507020042 | 80 | 110 | 0.9 | 0.0 | 0.00 | 0.00 | 0.00 | 89 | 1010.2 |
| 20260507014542 | 80 | 207 | 0.0 | 0.0 | 0.00 | 0.00 | 0.00 | 89 | 1009.9 |
| 20260507013042 | 80 | 171 | 0.9 | 0.0 | 0.00 | 0.00 | 0.00 | 88 | 1009.7 |
| 20260507011541 | 81 | 56 | 0.9 | 0.0 | 0.00 | 0.00 | 0.00 | 88 | 1009.7 |
| 20260507010041 | 81 | 140 | 1.7 | 0.0 | 0.00 | 0.00 | 0.00 | 87 | 1009.7 |
| 20260507004541 | 81 | 138 | 0.9 | 0.0 | 0.00 | 0.00 | 0.00 | 87 | 1009.6 |
| 20260507003048 | 82 | 177 | 0.0 | 0.0 | 0.00 | 0.00 | 0.00 | 86 | 1009.1 |
| 20260507001510 | 82 | 262 | 0.0 | 0.0 | 0.00 | 0.00 | 0.00 | 85 | 1008.8 |
| 20260507000041 | 82 | 234 | 0.9 | 0.0 | 0.00 | 0.00 | 0.00 | 85 | 1008.9 |
| 20260506234540 | 82 | 140 | 2.6 | 0.0 | 0.00 | 0.00 | 0.00 | 84 | 1009.1 |
| 20260506231540 | 83 | 104 | 0.0 | 0.0 | 0.00 | 0.00 | 0.00 | 83 | 1008.9 |